Погода в Добра-Вода

Черногория     42°02′04″N   19°08′57″E
темп.,
°C
ветер,
м/с
пор.,
м/с
влажн.,
%
обл.,
%
осадки,
мм/ч
давл.,
гПа
погр.,
м
26 июля, пн
пн2623:00+25ссв22479 0.0 101513
02:00+25с11460 0.0 101411
05:00+24св224998 0.0 101418
08:00+28в33415 0.0 1015255
11:00+31ю42355 0.0 1016752
14:00+31юз43372 0.0 1016669
17:00+30зюз333621 0.0 1015414
20:00+26зюз22557 0.0 101517
27 июля, вт
вт2723:00+25св11480 0.0 101613
02:00+24св11460 0.0 101720
05:00+24св22479 0.0 101720
08:00+29всв33360 0.0 1017176
11:00+32зюз32300 0.0 1017861
14:00+33зюз55310 0.0 1017788
17:00+33зюз44290 0.0 1015519
20:00+28зсз22380 0.0 101514
28 июля, ср
ср2823:00+27ссв223639 0.0 101611
02:00+26ссв22381 0.0 101514
05:00+25ссв22395 0.0 101412
08:00+32ссв12282 0.0 1015160
11:00+35зюз32222 0.0 10141171
14:00+36з54220 0.0 10131974
17:00+36зсз55210 0.0 10121224
20:00+32сз33270 0.0 101219
29 июля, чт
чт2923:00+28св22320 0.0 101313
02:00+27св22330 0.0 101312
05:00+26св22350 0.0 101312
08:00+31всв22260 0.0 1013168
11:00+35зюз32210 0.0 10131106
14:00+36з64230 0.0 10121807
17:00+36зсз66200 0.0 10111252
20:00+31ссз23280 0.0 101117
30 июля, пт
пт3023:00+28св22370 0.0 101125
02:00+26сз11420 0.0 101111
05:00+25св22400 0.0 101117
08:00+31всв22270 0.0 1011181
11:00+33ююз32230 0.0 1011746
14:00+33зюз55290 0.0 1010626
17:00+33зюз45250 0.0 1009461
20:00+27сз11390 0.0 100811